GEFSNGP_con_probscp_276.txt.gz
Probability
0 0 0 0 0 0 0 0 0 0 0 0 0 0 0 0 0 0 0 0 0 1 3 2 1 0 0 0 1 2 3 3 3 3 3 3 3 3 3 3 3 2 1 0
0 0 0 0 0 0 0 0 0 0 0 0 0 0 0 0 0 0 0 0 1 2 3 2 1 0 0 0 0 1 3 3 3 3 3 3 3 3 3 3 2 1 0 0
0 0 0 0 0 0 0 0 0 0 0 0 0 0 0 0 0 0 0 0 1 2 3 2 1 0 0 0 0 1 2 2 2 3 3 3 2 2 2 1 1 0 0 0
0 0 0 0 0 0 0 0 0 0 0 0 0 1 1 0 0 0 0 0 1 1 1 1 0 0 0 0 0 0 1 1 1 1 2 1 1 1 1 0 0 0 0 0
0 0 0 0 1 1 0 0 0 0 0 0 1 2 2 1 0 1 1 1 1 1 0 0 0 0 0 0 0 0 0 0 0 0 0 0 0 0 0 0 0 0 0 0
0 0 0 1 2 2 1 0 0 0 0 1 2 2 2 1 1 1 2 2 2 1 0 0 0 0 0 0 0 0 0 0 0 0 0 0 0 0 0 0 0 0 0 0
0 0 0 1 3 2 1 0 0 0 0 1 1 1 1 1 0 1 1 2 2 1 0 0 0 0 0 0 0 0 0 0 0 0 0 0 0 0 0 0 0 0 0 0
0 0 0 1 2 2 1 0 0 0 0 0 1 0 0 0 0 0 0 1 1 0 0 0 0 0 0 0 0 0 0 0 0 0 0 0 0 0 0 0 0 0 0 0
0 0 0 1 1 1 0 0 0 0 0 1 1 0 0 0 0 0 0 0 0 0 0 0 0 0 0 0 0 0 0 0 0 0 0 0 0 0 0 0 0 0 0 0
1 1 0 0 0 0 0 0 0 0 0 1 1 0 0 0 0 0 0 0 0 0 0 0 0 0 0 0 0 0 0 0 0 0 0 0 0 0 0 0 0 0 0 0
0 0 0 0 0 0 0 0 0 0 0 0 0 0 0 0 0 0 0 0 0 0 0 0 0 0 0 0 0 0 0 0 0 0 0 0 0 0 0 0 0 0 0 0
0 0 0 0 0 0 0 0 0 0 0 0 0 0 0 0 0 0 0 0 0 0 0 0 0 0 0 0 0 0 0 0 0 0 0 0 0 0 0 0 0 0 0 0
0 0 0 0 0 0 0 0 0 0 0 0 0 0 0 0 0 0 0 0 0 0 0 0 0 0 0 0 0 0 0 0 0 0 0 0 0 0 0 0 0 0 0 0
0 0 0 0 0 0 0 0 0 0 0 0 0 0 0 0 0 0 0 0 0 0 0 0 0 0 0 0 0 0 0 0 0 0 0 0 0 0 0 0 0 0 0 0
0 0 0 0 0 0 0 0 0 0 0 0 0 0 0 0 0 0 0 0 0 0 0 0 0 0 0 0 0 0 0 0 0 0 0 0 0 0 0 0 0 0 0 0
0 0 0 0 0 0 0 0 0 0 0 0 0 0 0 0 0 0 0 0 0 0 0 0 0 0 0 0 0 0 0 0 0 0 0 0 0 0 0 0 0 0 0 0
0 0 0 0 0 1 0 0 0 0 0 0 0 0 0 0 0 0 0 0 0 0 0 0 0 0 0 0 0 0 0 0 0 0 0 0 0 0 0 0 0 0 0 0
0 0 0 0 0 0 0 0 0 0 0 0 0 0 0 0 0 0 0 0 0 0 0 0 0 0 0 0 0 0 0 0 0 0 0 0 0 0 0 0 0 0 0 0
0 0 0 0 0 0 0 0 0 0 0 0 0 0 0 0 0 0 0 0 0 0 0 0 0 0 0 0 0 0 0 0 0 0 0 0 0 0 0 0 0 0 0 0
0 0 0 0 0 0 0 0 0 0 0 0 0 0 0 0 0 0 0 0 0 0 0 0 0 0 0 0 0 0 0 0 0 0 0 0 0 0 0 0 0 0 0 0
0 0 0 0 0 0 0 0 0 0 0 0 0 0 0 0 0 0 0 0 0 0 0 0 0 0 0 0 0 0 0 0 0 0 0 0 0 0 0 0 0 0 0 0
0 0 0 0 0 0 0 0 0 0 0 0 0 0 0 0 0 0 0 0 0 0 0 0 0 0 0 0 0 0 0 0 0 0 0 0 0 0 0 0 0 0 0 0
0 0 0 0 0 0 0 0 0 0 0 0 0 0 0 0 0 0 0 0 0 0 0 0 0 0 0 0 0 0 0 0 0 0 0 0 0 0 0 0 0 0 0 0
0 0 0 0 0 0 0 0 0 0 0 0 0 0 0 0 0 0 0 0 0 0 0 0 0 0 0 0 0 0 0 0 0 0 0 0 0 0 0 0 0 0 0 0
0 0 0 0 0 0 0 0 0 0 0 0 0 0 0 0 0 0 0 0 0 0 0 0 0 0 0 0 0 0 0 0 0 0 0 0 0 0 0 0 0 0 0 0
0 0 0 0 0 0 0 0 0 0 0 0 0 0 0 0 0 0 0 0 0 0 0 0 0 0 0 0 0 0 0 0 0 0 0 0 0 0 0 0 0 0 0 0
0 0 0 0 0 0 0 0 0 0 0 0 0 0 0 0 0 0 0 0 0 0 0 0 0 0 0 0 0 0 0 0 0 0 0 0 0 0 0 0 0 0 0 0

GEFSNGP_con_probscp_282.txt.gz
Probability
0 0 0 0 0 1 0 0 1 2 3 1 0 1 2 1 0 0 1 2 3 5 7 9 8 6 4 4 4 4 4 4 4 7 9 13 15 15 15 14 13 11 11 12
0 0 0 0 0 1 1 1 2 4 3 2 1 1 2 2 1 1 1 3 5 6 9 10 8 5 4 4 4 5 5 4 4 5 8 11 14 14 14 14 13 11 11 12
0 0 0 0 0 1 1 1 2 3 3 2 1 1 2 2 2 1 2 5 8 9 9 9 9 6 4 4 5 5 5 4 4 4 6 8 9 11 12 12 11 11 11 12
1 1 0 0 0 1 1 1 1 1 2 2 1 1 1 2 2 2 3 6 10 11 9 7 7 6 5 5 5 4 4 4 4 4 4 4 5 7 9 10 10 10 10 11
2 1 0 0 0 1 1 1 1 2 2 1 1 2 2 3 3 3 5 6 9 10 9 7 7 6 5 4 4 4 3 3 3 4 3 3 3 4 6 8 9 10 10 10
2 1 0 0 0 1 2 2 2 3 3 2 2 3 3 3 4 5 6 5 6 8 9 8 7 5 3 2 2 1 1 2 3 3 3 3 3 2 3 5 7 9 8 8
1 0 0 1 2 2 2 2 2 2 2 3 4 3 3 4 6 7 6 4 5 7 8 8 7 5 3 1 0 0 0 1 2 2 2 2 1 1 1 2 4 6 6 6
1 1 1 3 4 3 3 2 1 1 2 3 4 3 4 6 7 7 7 6 6 7 7 7 6 6 5 3 1 0 0 1 1 1 1 1 0 0 0 1 2 4 4 5
2 2 3 3 3 3 3 3 3 2 2 3 3 3 4 5 6 6 7 8 8 7 8 7 7 7 7 6 4 2 1 2 2 1 0 0 0 0 0 0 1 2 3 4
1 2 2 2 1 1 1 2 2 2 2 2 2 2 3 3 3 4 6 7 8 9 8 7 6 6 8 8 7 4 3 3 3 2 0 0 0 0 0 0 0 1 2 3
0 1 1 0 0 0 0 1 1 1 0 1 2 2 2 2 1 2 4 5 7 7 6 4 5 7 8 9 8 6 4 4 3 2 1 0 0 0 0 0 0 0 1 2
1 0 0 0 0 0 0 0 0 0 0 1 2 2 1 1 0 1 2 4 4 4 2 2 3 6 8 8 6 4 4 3 3 3 2 1 1 1 0 0 0 0 0 1
2 1 1 0 0 0 0 0 0 0 0 0 1 1 0 0 0 0 1 2 3 2 1 1 1 2 4 4 3 2 2 2 2 2 2 2 2 1 0 0 0 0 0 0
3 3 2 1 0 0 1 1 0 0 0 0 0 0 0 0 0 0 0 1 1 2 2 1 0 0 1 1 1 1 1 1 1 1 1 1 1 1 0 0 0 0 0 0
3 3 2 1 0 0 1 2 1 0 0 0 0 0 0 0 0 0 0 0 0 2 3 1 0 0 0 1 1 1 1 1 2 2 1 0 0 0 0 0 0 0 0 0
3 3 3 2 1 1 2 2 1 1 1 1 1 1 0 0 0 0 0 0 0 1 2 1 1 1 0 1 2 2 2 1 2 3 2 2 1 1 0 0 0 0 0 0
3 3 4 3 3 3 3 3 3 2 2 2 2 2 1 1 1 1 1 0 1 1 1 1 2 2 1 0 1 1 2 1 1 2 2 3 4 3 2 1 0 0 0 0
1 2 3 3 4 4 3 2 2 2 2 2 2 2 2 2 2 2 2 1 1 2 1 1 2 3 2 1 0 0 1 2 2 1 2 4 5 5 3 1 0 0 0 0
0 1 1 1 2 2 1 1 1 1 1 1 1 1 2 3 3 3 3 3 2 2 3 2 2 3 2 1 0 0 1 1 1 1 2 2 4 4 3 2 1 0 0 0
1 0 0 0 0 0 0 0 0 0 0 0 0 0 1 2 2 3 3 3 3 3 3 3 2 2 1 0 0 0 0 1 1 1 1 0 1 2 3 3 2 1 1 1
1 0 0 0 0 0 0 0 0 0 0 0 0 0 0 1 1 1 2 2 2 2 2 2 2 1 0 0 0 0 0 1 0 0 0 0 0 1 1 2 3 3 2 2
1 0 0 0 0 0 0 0 0 0 0 0 0 0 0 0 0 0 1 1 1 1 1 1 1 0 0 0 0 0 0 0 0 0 0 0 0 0 0 1 2 3 3 3
0 0 0 0 0 0 0 0 0 0 0 0 0 0 0 0 0 0 0 1 1 0 0 0 0 0 0 0 0 0 0 0 1 1 1 0 0 0 0 0 1 2 3 3
0 0 0 0 0 0 0 0 0 0 0 0 0 0 0 0 0 0 0 1 1 0 0 0 0 0 0 0 0 0 0 0 1 2 1 0 0 0 0 1 1 2 2 2
0 0 0 0 0 0 0 0 0 0 0 0 0 0 0 0 0 0 0 0 0 0 1 0 0 0 0 0 0 0 0 0 1 1 1 0 0 0 1 2 2 2 2 2
0 0 0 0 1 1 1 1 0 0 0 0 0 0 0 0 0 0 0 0 0 0 0 0 0 0 0 0 1 1 1 1 1 1 1 1 1 1 2 2 2 2 2 2
0 0 0 0 1 2 2 2 1 0 0 0 0 0 0 0 0 0 0 0 0 0 0 0 0 0 0 1 2 2 2 2 2 2 2 2 2 2 2 2 1 1 1 1

GEFSNGP_con_probscp_288.txt.gz
Probability
2 1 0 0 0 1 2 2 1 3 5 5 6 11 14 11 8 5 5 7 11 15 16 15 14 14 16 17 17 16 16 16 16 18 20 20 18 16 14 11 10 11 12 13
3 2 1 0 0 1 2 3 4 5 6 5 6 10 12 10 7 6 5 7 10 14 15 15 15 16 18 18 17 16 15 14 15 16 18 18 18 16 14 12 12 12 13 13
1 1 1 1 1 2 3 4 6 6 6 6 7 9 11 9 8 8 7 9 12 14 16 18 18 19 19 18 16 15 14 12 12 13 14 15 16 15 14 14 13 12 12 12
0 0 1 1 2 2 2 3 4 5 6 7 8 8 9 9 9 10 12 16 18 18 19 20 21 21 17 14 14 13 12 11 11 11 11 11 13 13 13 14 13 12 11 10
0 0 0 0 1 1 1 1 2 4 6 6 6 5 6 9 12 13 17 22 23 21 20 20 20 20 15 12 12 12 11 11 11 11 10 9 10 11 12 13 12 10 9 9
0 0 0 0 0 0 0 1 3 5 6 5 3 3 5 9 13 16 20 23 24 22 21 20 19 18 16 14 13 11 10 10 11 11 10 8 8 9 10 10 9 7 6 7
0 0 0 0 0 1 2 3 5 5 4 3 2 3 5 8 12 16 19 21 21 20 19 19 19 16 16 16 15 13 10 10 10 9 9 9 9 9 8 7 6 5 4 4
0 0 0 1 1 2 4 6 6 4 3 2 2 3 4 7 9 11 15 17 18 17 16 15 15 15 14 16 17 15 13 12 10 9 8 8 9 9 6 4 4 4 3 2
0 0 1 2 2 3 5 6 4 3 1 1 1 2 3 5 6 7 10 13 14 14 13 11 11 13 15 15 16 17 16 15 13 11 9 7 7 6 3 1 1 1 1 1
0 0 1 2 2 3 3 3 2 2 1 0 0 0 1 3 5 6 8 10 11 12 11 9 9 12 14 15 16 18 18 17 14 12 10 8 6 3 1 0 0 0 1 1
1 1 1 1 1 1 1 1 0 0 0 0 0 0 0 1 3 5 7 8 9 10 9 8 8 10 12 14 16 17 17 16 13 10 9 8 6 3 1 0 0 0 1 2
2 2 2 2 1 0 0 0 0 0 0 0 0 0 0 1 2 4 5 6 7 8 8 7 7 8 11 14 16 16 15 13 11 8 8 7 5 3 1 0 0 0 1 1
2 2 3 3 1 0 0 0 0 0 0 0 0 0 0 0 1 2 4 6 6 6 6 6 6 6 9 12 14 14 12 10 8 6 5 5 4 3 2 1 1 0 0 0
2 2 3 2 1 0 0 0 0 0 0 0 0 0 0 0 0 2 3 5 6 5 4 4 4 5 7 9 11 11 9 7 5 3 3 2 2 2 2 2 2 1 0 0
3 3 2 1 0 0 0 0 0 0 0 0 0 0 0 0 1 2 3 4 5 4 3 3 3 4 5 6 8 9 8 5 2 1 1 1 1 1 1 2 2 1 0 0
3 3 3 2 1 1 1 1 1 1 1 1 1 1 2 3 2 2 3 3 3 3 3 4 4 5 5 5 7 8 6 3 1 1 1 0 0 0 0 1 2 1 0 0
3 3 2 2 2 2 2 2 2 2 2 2 3 4 6 6 4 3 2 2 2 3 4 5 4 4 5 6 8 8 5 2 1 2 2 1 1 0 1 2 2 1 0 0
2 1 1 1 2 2 2 3 3 3 3 3 3 5 7 7 6 5 4 3 4 4 5 6 5 5 6 8 9 8 5 2 1 2 2 2 1 0 1 2 2 1 0 0
1 0 0 0 1 1 1 2 3 2 1 1 3 5 7 7 6 6 5 4 4 5 6 6 6 7 8 8 7 7 5 2 1 1 1 1 1 0 0 1 1 1 0 0
0 0 0 0 0 0 0 1 2 1 0 1 2 5 6 6 6 5 4 3 3 5 5 5 6 7 8 6 4 4 4 2 1 0 0 0 0 0 0 0 0 0 0 0
0 0 1 1 1 1 1 1 1 0 0 0 1 3 4 4 3 3 2 1 1 3 3 3 4 5 5 3 2 2 2 2 1 0 0 0 0 0 0 0 0 0 0 0
1 1 2 2 2 2 1 1 1 0 0 0 1 2 2 1 1 1 0 0 0 1 1 3 3 3 2 1 1 2 2 2 1 0 1 1 1 1 1 1 1 1 1 1
2 3 3 3 3 2 2 2 2 1 1 0 1 1 1 0 0 0 0 0 0 0 1 2 2 1 1 1 1 1 1 1 0 0 1 2 2 2 2 2 2 2 2 2
3 3 3 3 3 2 1 2 3 3 2 1 1 1 1 1 0 0 0 0 0 0 0 1 1 0 0 1 0 0 0 0 0 0 1 1 1 1 1 1 1 1 1 1
4 3 3 3 2 1 1 1 2 2 2 1 1 1 2 1 0 0 0 0 0 0 0 0 0 0 0 0 0 0 0 0 0 0 0 0 0 0 0 0 0 0 0 0
5 4 3 2 1 1 0 0 1 1 1 1 1 1 1 1 0 0 0 0 0 0 0 0 0 0 0 0 0 0 0 0 0 0 0 0 0 0 0 1 1 1 1 1
5 5 3 1 1 1 0 0 0 0 0 1 2 1 0 0 0 0 0 0 0 0 0 0 0 0 0 0 0 0 0 0 0 0 0 0 0 0 1 2 2 2 2 2

GEFSNGP_con_probscp_294.txt.gz
Probability
0 0 0 0 0 0 0 1 1 1 1 2 2 1 2 4 5 4 4 5 5 5 4 4 4 4 6 8 8 9 9 10 10 9 7 6 5 4 4 4 3 3 3 2
0 0 0 0 0 0 0 1 2 2 1 1 2 2 2 4 4 4 4 4 4 5 5 5 4 5 6 7 8 8 8 9 9 8 7 6 5 4 4 3 3 3 3 3
0 0 0 0 0 0 0 1 1 2 2 2 2 2 3 3 3 4 4 4 4 4 5 5 5 6 7 7 7 6 6 6 6 6 6 5 4 4 4 3 2 3 3 2
0 0 0 0 0 0 0 0 0 1 2 2 2 2 2 2 3 3 4 4 3 3 3 4 5 6 7 7 6 6 4 4 4 4 4 4 3 3 3 3 3 3 2 1
0 0 0 0 0 0 0 0 0 0 1 1 1 1 0 1 1 2 2 2 3 3 3 3 5 6 7 6 6 6 4 3 2 2 2 2 2 3 3 3 3 3 2 1
0 0 0 0 0 0 0 0 0 0 0 0 0 0 0 0 0 1 1 2 3 3 4 4 5 7 7 6 6 6 4 2 1 1 0 0 1 1 2 3 3 3 3 3
0 0 0 0 0 0 0 0 0 0 0 0 0 0 0 0 0 0 1 3 3 3 3 3 5 6 6 6 5 5 4 2 0 0 0 0 0 0 1 1 2 3 3 3
0 0 0 0 0 0 0 0 0 0 0 0 0 0 0 0 0 0 1 3 3 2 1 2 4 5 5 5 5 5 4 2 1 0 0 0 0 0 0 0 1 2 3 3
0 0 0 0 0 0 0 0 0 0 0 0 0 0 0 0 0 0 1 2 2 2 2 2 3 4 4 4 4 4 4 3 1 0 0 0 0 0 0 0 0 1 2 2
0 0 0 0 0 0 0 0 0 0 0 0 0 0 0 0 0 0 0 1 1 2 2 2 2 3 3 3 3 4 3 3 2 1 1 1 1 0 0 0 0 0 1 1
0 0 0 0 0 0 0 0 0 0 0 0 0 0 0 0 0 0 0 0 0 1 1 1 1 2 3 3 3 3 3 2 2 2 2 2 1 0 0 0 0 0 0 0
0 0 0 0 0 0 0 0 0 0 0 0 0 0 0 0 0 0 0 0 0 0 0 0 0 1 3 3 3 3 2 1 1 1 1 1 1 0 0 0 0 0 0 0
0 0 0 0 0 0 0 0 0 0 0 0 0 0 0 0 0 0 0 0 0 0 0 0 0 1 2 3 4 4 3 1 0 0 0 0 0 0 0 0 0 0 0 0
0 0 0 0 0 0 0 0 0 0 0 0 0 0 0 0 0 0 0 0 0 0 0 0 0 1 2 3 4 4 2 1 0 0 0 0 0 0 0 0 0 0 0 0
0 0 0 0 0 0 0 0 0 0 0 0 0 0 0 0 0 0 0 0 0 0 0 0 0 0 1 3 4 3 1 0 0 0 0 0 0 0 0 0 0 0 0 0
0 0 0 0 0 0 0 0 0 0 0 0 0 0 0 0 0 0 0 0 0 0 0 0 0 0 1 2 3 2 1 0 0 0 0 0 0 0 0 0 0 0 0 0
0 0 0 0 0 0 0 0 0 0 0 0 0 0 0 0 0 0 0 0 0 0 0 0 0 0 0 1 3 3 1 0 0 0 0 0 0 0 0 0 0 0 0 0
0 0 0 0 0 0 0 0 0 0 0 0 0 0 0 0 0 0 0 0 0 0 0 0 0 0 0 1 2 3 2 1 0 0 0 0 0 0 0 0 0 0 0 0
0 0 0 0 0 0 0 0 1 1 1 1 1 0 0 0 0 0 0 0 0 0 0 0 0 0 0 1 2 3 3 1 0 0 0 0 0 0 0 0 0 0 0 0
0 0 0 0 0 1 1 1 2 2 2 2 2 1 0 0 0 0 0 0 0 0 0 0 0 0 0 0 1 3 3 2 1 0 0 0 0 0 0 0 0 0 0 0
0 0 0 0 1 2 2 3 3 3 3 2 2 1 0 0 0 0 0 0 0 0 0 0 0 0 0 0 1 2 3 2 1 0 0 0 0 0 0 0 0 0 0 0
0 0 0 0 1 3 3 3 3 2 1 1 1 0 0 0 0 0 0 0 0 0 0 0 0 0 0 0 0 1 1 1 1 0 0 0 0 0 0 0 0 0 0 0
0 0 0 1 2 2 2 2 2 1 0 0 0 0 0 0 0 0 0 0 0 0 0 0 0 0 0 0 0 0 0 0 0 0 0 0 0 0 0 0 0 0 0 0
0 0 0 1 2 1 1 1 1 0 0 0 0 0 0 0 0 0 0 0 0 0 0 0 0 0 0 0 0 0 0 0 0 0 0 0 0 0 0 0 0 0 0 0
0 0 0 1 1 0 0 0 0 0 0 0 0 0 0 0 0 0 0 0 0 0 0 0 0 0 0 0 0 0 0 0 0 0 0 0 0 0 0 0 0 0 0 0
0 0 0 0 0 0 0 0 0 0 0 0 0 0 0 0 0 0 0 0 0 0 0 0 0 0 0 0 0 0 0 0 0 0 0 0 0 0 0 0 0 0 0 0
0 0 0 0 0 0 0 0 0 0 0 0 0 0 0 0 0 0 0 0 0 0 0 0 0 0 0 0 0 0 0 0 0 0 0 0 0 0 0 0 0 0 0 0